Location: Bonny Doon Airfield
(37.0704°N, 122.1252°W)
Time: 02:25:42
(UTC-07:00)

ISS - Pass Details

Date: 16 October 2017
Orbit: 401 x 408 km, 51.6° (Epoch: 19 October)

Event Time Altitude Azimuth Distance (km) Brightness Sun altitude
Rises 19:23:55 0° 304° (NW) 2,320 0.9 -11.5°
Reaches altitude 10° 19:26:03 10° 298° (WNW) 1,459 0.0 -12.0°
Maximum altitude 19:29:10 43° 225° (SW) 581 -2.7 -12.6°
Drops below altitude 10° 19:32:17 10° 153° (SSE) 1,453 -1.3 -13.2°
Enters shadow 19:32:56 - 150° (SSE) 1,713 -0.9 -13.3°
